DTUSAT

Satellite information

Favourite Embed

Satellite Type and Status

PAYLOADIN ORBIT

Key statistics

Satellite DTUSAT at a glance.

Uptime

7986

Days in orbit

Revolutions

≈ 14.2

Per day

Orbit

SSO

Sun Synchronous Orbit

Inclination

98.7

Latest

Satellite identification and parameters

Extended collection of information and parameters for DTUSAT.

Object identification

Identified? True

Debris? False

Object name: DTUSAT

International designator: 2003-031C

Object number (NORAD): 27842

Object ID (CCSDS): 27842

Country: DENMARK (DEN)

Current information (Y/N): Y

RCS size: SMALL

Orbital parameters

Period: 101.149 minutes

Inclination: 98.6875 deg

SMA: 7191.196 km

Apoapsis: 818.911 km

Periapsis: 807.211 km

RAAN: 139.0736 deg

Eccentricy: 0.0008135

Argument of periapsis: 247.0687 deg

Mean anomaly: 112.9633 deg

Mean motion: 14.23642895 rev/day

Mean motion (dot): 0.00000293 rev/day2

B* drag term: 0.00014773 1/REarth

Two-line elements (TLE)

Creation date: May 11, 2025, 2:40 a.m.

Reference frame: TEME

Reference center: EARTH

Epoch: May 10, 2025, 6:34 p.m. UTC

TLE line 0: 0 DTUSAT

TLE line 1: 1 27842U 03031C 25130.77400317 .00000293 00000-0 14773-3 0 9999

TLE line 2: 2 27842 98.6875 139.0736 0008135 247.0687 112.9633 14.23642895134555

Live tracking on map

Real-time ground track for satellite DTUSAT.

In-orbit conjunctions

A list of the most updated potential collisions computed for object DTUSAT.

Target Orbit TCA Probability of collision Miss distance Type
DMSP 5D-2 F13 DEB SSO 2025-04-23 02:45:26 0.0001379523 485.0 (m) DEBRIS
FENGYUN 1C DEB SSO 2025-02-25 00:07:04 0.002817415 21.0 (m) DEBRIS
FENGYUN 1C DEB SSO 2025-02-24 06:32:12 0.0001308501 840.0 (m) DEBRIS
DELTA 1 DEB SSO 2024-09-22 22:32:22 0.0003292798 247.0 (m) DEBRIS
PEGASUS DEB LEO 2024-07-24 17:29:53 0.0001015566 418.0 (m) DEBRIS

Associated space launch

MIMOSA (Micro Measurements Of Satellite Acceleration) is a microsatellite to measure atmospheric drag.

DTUSAT was lifted into orbit during the mission ‘Rokot / Briz-KM | Mimosa’, on board a Rokot/Briz-KM space rocket.

The launch took place on June 30, 2003, 2:15 p.m. from 133/3 (133L).

For more information about the launch, click the button.

Launch to space Rokot / Briz-KM | Mimosa
Rokot / Briz-KM | Mimosa

Agency: N/A

Status: Launch Successful

Launch date: June 30, 2003, 2:15 p.m. UTC

Rocket: Rokot/Briz-KM

Launch pad: 133/3 (133L)

Location: Plesetsk Cosmodrome, Russian Federation

...

Latest news about this satellite

There are no fresh news available about this satellite. Check back as we update our databases every day.


Newsletter sign-up

Weekly statistics, charts and insights to help you stay on top of the space industry.